Flag for Romania Weather past 2 weeks in Iasi, Romania

Now
36 °F

Passing clouds.


Feels Like: 30 °F
Forecast: 31 / 43 °F
Wind: 7 mph from West

Location: Iasi Airport

Current Time: Dec 21, 2014 at 11:36:15 PM

Latest Report: Dec 21, 2014 at 11:00 PM


Visibility: N/A

Pressure: 30.18 "Hg

Humidity: 75%

Dew point: 28 °F

Location of IasiLocation

Historic Weather in Iasi — Graph

°F

Iasi temperature yesterday

Maximum temperature yesterday: 43 °F (at 3:00 PM)
Minimum temperature yesterday: 32 °F (at 1:00 AM)
Average temperature yesterday: 37 °F

Past Weeks' High & Low Weather Summary

 TemperatureHumidityPressure
High46 °F (Dec 12, 1:30 PM)100% (Dec 6, 10:00 PM)30.24 "Hg (Dec 6, 10:00 PM)
Low27 °F (Dec 13, 7:30 AM)57% (Dec 12, 2:00 PM)29.80 "Hg (Dec 17, 1:00 PM)
Average33 °F97%30.08 "Hg
* Reported Dec 6 10:00 PM — Dec 21 10:00 PM, Iasi, Weather by CustomWeather, © 2014

Note: Actual official high and low records may vary slightly from our data, if they occured in-between our weather recording intervals... More about our weather records

Advertising

Iasi weather history for previous 24 hours

 ConditionsComfort  
Time TempWeatherWind HumidityBarometerVisibility
10:00 PM
Dec 21
36 °FPassing clouds.9 mph75%30.15 "HgN/A
9:00 PM37 °FClear.12 mph70%30.12 "Hg10 mi
8:30 PM37 °FPassing clouds.9 mph75%30.12 "HgN/A
8:00 PM37 °FPassing clouds.12 mph75%30.12 "HgN/A
7:30 PM37 °FPassing clouds.12 mph75%30.09 "HgN/A
7:00 PM37 °FClear.12 mph75%30.09 "Hg10 mi
6:30 PM37 °FClear.9 mph75%30.07 "Hg10 mi
6:00 PM37 °FClear.14 mph75%30.07 "Hg10 mi
5:30 PM37 °FPassing clouds.9 mph75%30.04 "HgN/A
5:00 PM37 °FPassing clouds.9 mph75%30.04 "HgN/A
4:30 PM39 °FClear.12 mph70%30.04 "Hg10 mi
4:00 PM39 °FSunny.14 mph75%30.01 "Hg10 mi
3:30 PM39 °FSunny.12 mph75%30.01 "Hg10 mi
3:00 PM37 °FPassing clouds.7 mph87%30.01 "HgN/A
2:30 PM37 °FSunny.7 mph87%29.98 "Hg10 mi
2:00 PM37 °FSunny.5 mph93%29.98 "Hg10 mi
1:30 PM36 °FScattered clouds.9 mph93%29.98 "HgN/A
1:00 PM36 °FSprinkles. Scattered clouds.18 mph93%29.98 "HgN/A
12:00 PM41 °FLight rain. Broken clouds.2 mph87%29.95 "HgN/A
11:30 AM41 °FPassing clouds.No wind87%29.95 "HgN/A
11:00 AM41 °FPassing clouds.2 mph81%29.95 "HgN/A
10:30 AM41 °FPassing clouds.2 mph76%29.95 "HgN/A
10:00 AM39 °FPassing clouds.5 mph81%29.95 "HgN/A
9:30 AM37 °FPassing clouds.5 mph87%29.92 "HgN/A
9:00 AM39 °FScattered clouds.5 mph75%29.92 "HgN/A
8:30 AM37 °FLight rain. Scattered clouds.7 mph81%29.92 "HgN/A
8:00 AM37 °FSunny.2 mph81%29.92 "Hg10 mi
7:30 AM39 °FClear.2 mph81%29.92 "Hg10 mi
7:00 AM39 °FClear.2 mph81%29.89 "Hg10 mi
6:30 AM39 °FPassing clouds.2 mph81%29.89 "HgN/A
5:30 AM41 °FClear.7 mph76%29.89 "Hg10 mi
4:00 AM39 °FPassing clouds.9 mph81%29.89 "HgN/A
3:00 AM39 °FPassing clouds.7 mph81%29.89 "HgN/A
2:00 AM37 °FClear.2 mph87%29.95 "Hg10 mi
1:00 AM36 °FClear.7 mph93%29.95 "Hg10 mi
12:00 AM37 °FClear.2 mph87%29.98 "Hg10 mi
11:00 PM
Dec 20
36 °FClear.2 mph93%29.98 "Hg10 mi
Weather by CustomWeather, © 2014

See weather overviewHow to use our weather pages